TimeEDT,TemperatureF,Dew PointF,Humidity,Sea Level PressureIn,VisibilityMPH,Wind Direction,Wind SpeedMPH,Gust SpeedMPH,PrecipitationIn,Events,Conditions,WindDirDegrees,DateUTC
12:54 AM,73.0,68.0,84,30.13,10.0,Calm,Calm,-,N/A,,Clear,0,2013-07-18 04:54:00
1:54 AM,72.0,68.0,87,30.12,10.0,South,3.5,-,N/A,,Partly Cloudy,170,2013-07-18 05:54:00
2:54 AM,72.0,68.0,87,30.09,10.0,Calm,Calm,-,N/A,,Clear,0,2013-07-18 06:54:00
3:54 AM,71.1,66.9,87,30.08,10.0,Calm,Calm,-,N/A,,Clear,0,2013-07-18 07:54:00
4:54 AM,73.0,68.0,84,30.08,10.0,Calm,Calm,-,N/A,,Scattered Clouds,0,2013-07-18 08:54:00
5:54 AM,70.0,66.9,90,30.07,10.0,Calm,Calm,-,N/A,,Overcast,0,2013-07-18 09:54:00
6:54 AM,70.0,68.0,93,30.08,10.0,Calm,Calm,-,N/A,,Scattered Clouds,0,2013-07-18 10:54:00
7:54 AM,73.0,69.1,87,30.09,10.0,Calm,Calm,-,N/A,,Scattered Clouds,0,2013-07-18 11:54:00
8:13 AM,73.4,69.8,88,30.10,10.0,Calm,Calm,-,N/A,,Mostly Cloudy,0,2013-07-18 12:13:00
8:54 AM,75.9,70.0,82,30.08,10.0,NE,3.5,-,N/A,,Mostly Cloudy,40,2013-07-18 12:54:00
9:07 AM,77.0,68.0,74,30.09,10.0,Calm,Calm,-,N/A,,Scattered Clouds,0,2013-07-18 13:07:00
9:54 AM,80.1,71.1,74,30.06,10.0,Calm,Calm,-,N/A,,Clear,0,2013-07-18 13:54:00
10:54 AM,84.9,72.0,65,30.05,10.0,Variable,5.8,-,N/A,,Clear,0,2013-07-18 14:54:00
11:54 AM,84.0,71.1,65,30.05,10.0,NW,4.6,-,N/A,,Partly Cloudy,310,2013-07-18 15:54:00
12:54 PM,84.0,72.0,67,30.05,10.0,North,8.1,-,N/A,,Mostly Cloudy,350,2013-07-18 16:54:00
1:14 PM,82.4,71.6,70,30.06,10.0,NNW,6.9,-,N/A,Thunderstorm,Thunderstorm,340,2013-07-18 17:14:00
1:54 PM,77.0,72.0,84,30.03,10.0,NE,3.5,-,0.00,Thunderstorm,Partly Cloudy,40,2013-07-18 17:54:00
2:02 PM,77.0,71.6,83,30.04,10.0,East,3.5,-,N/A,,Clear,80,2013-07-18 18:02:00
2:35 PM,78.8,71.6,78,30.02,10.0,SE,4.6,-,N/A,Thunderstorm,Thunderstorm,130,2013-07-18 18:35:00
2:50 PM,78.8,71.6,78,30.01,10.0,South,6.9,-,N/A,,Clear,170,2013-07-18 18:50:00
2:54 PM,79.0,72.0,79,30.00,10.0,SSE,6.9,-,N/A,,Clear,150,2013-07-18 18:54:00
3:54 PM,82.9,72.0,69,29.98,10.0,SSE,9.2,-,N/A,,Clear,150,2013-07-18 19:54:00
4:22 PM,80.6,71.6,74,29.98,10.0,SSE,6.9,-,N/A,Thunderstorm,Thunderstorm,160,2013-07-18 20:22:00
4:54 PM,78.1,73.9,87,30.00,5.0,NNW,17.3,25.3,0.02,Rain-Thunderstorm,Heavy Thunderstorms and Rain,340,2013-07-18 20:54:00
5:12 PM,73.4,69.8,88,29.97,10.0,NNE,6.9,-,0.07,Rain-Thunderstorm,Light Thunderstorms and Rain,30,2013-07-18 21:12:00
5:29 PM,75.2,71.6,89,29.96,10.0,East,8.1,-,0.07,,Partly Cloudy,100,2013-07-18 21:29:00
5:54 PM,77.0,71.1,82,29.93,10.0,East,5.8,-,0.07,,Clear,100,2013-07-18 21:54:00
6:54 PM,79.0,72.0,79,29.89,10.0,SE,6.9,-,N/A,,Clear,140,2013-07-18 22:54:00
7:54 PM,82.0,71.1,69,29.85,10.0,North,-9999.0,-,N/A,,Clear,0,2013-07-18 23:54:00
8:54 PM,79.0,72.0,79,29.83,10.0,South,5.8,-,N/A,,Clear,180,2013-07-19 00:54:00
9:54 PM,79.0,72.0,79,29.83,10.0,South,6.9,-,0.00,,Clear,190,2013-07-19 01:54:00
10:54 PM,81.0,69.1,67,29.81,10.0,SW,10.4,-,N/A,,Clear,220,2013-07-19 02:54:00
11:54 PM,82.0,68.0,62,29.80,10.0,SW,6.9,-,N/A,,Clear,220,2013-07-19 03:54:00